Location: Boncourt
(49.6160°N, 3.9448°E)
Time: 22:40:35
(UTC+00:00)

SJ-6B - Pass Details

Date: 09 February 2023
Orbit: 501 x 570 km, 97.5° (Epoch: 31 March)

Event Time Altitude Azimuth Distance (km) Brightness Sun altitude
Exits shadow 18:33:46 34° 80° (E) 934 3.4 -16.7°
Maximum altitude 18:34:06 35° 68° (ENE) 923 3.4 -16.8°
Drops below altitude 10° 18:37:48 10° 3° (N) 1,876 5.5 -17.4°
Sets 18:40:06 0° 354° (N) 2,787 6.5 -17.8°
